Theta_e
304 305 305 305 304 305 311 312 317 319 320 320 320 321 322 315 312 311 310 308 309 311 313 315 317 319 318 318 318 319 313 313 316 316 317 318 317 320 321 320 326 337 340 341 343
302 303 303 303 304 304 302 303 306 311 316 318 320 320 320 322 322 320 310 309 307 307 309 314 316 318 318 317 318 314 312 314 314 315 317 317 317 319 319 319 334 339 341 341 339
298 298 299 302 303 304 304 302 300 303 309 313 314 315 319 321 321 320 313 313 313 311 308 308 312 317 317 316 317 315 315 312 316 318 318 317 318 320 318 317 321 336 342 340 338
297 296 296 297 299 303 305 304 301 299 299 304 309 311 313 317 322 315 316 316 316 313 309 307 310 316 315 314 316 315 314 316 317 319 318 317 319 317 319 320 321 323 342 341 340
296 295 295 295 295 299 303 305 303 300 298 298 301 306 309 314 319 316 315 314 318 316 312 308 312 316 315 314 314 314 315 317 318 318 318 318 316 316 318 320 321 322 342 342 342
293 293 294 294 294 295 299 303 305 301 299 298 297 300 305 311 314 318 321 320 320 319 317 311 314 315 316 315 314 314 314 314 316 316 317 316 315 318 320 320 321 320 340 342 343
294 294 293 293 294 296 296 301 304 302 300 298 298 298 302 307 310 314 316 319 321 320 318 315 317 319 317 316 316 317 315 315 316 316 315 318 317 315 320 321 321 320 320 324 337
295 295 294 294 295 297 296 300 303 302 300 299 300 299 302 304 307 306 318 319 320 321 320 316 316 318 315 315 319 319 317 317 317 317 317 318 318 317 320 321 321 322 321 320 320
295 296 297 297 300 299 298 302 303 302 300 300 300 299 300 300 300 301 305 311 318 319 321 320 320 317 315 316 318 318 319 319 318 318 317 317 317 317 319 321 320 322 322 322 322
295 296 297 298 298 300 301 302 302 301 300 301 301 300 300 299 302 301 302 304 311 313 315 318 319 312 310 315 321 320 319 317 318 319 317 318 318 318 319 319 319 321 321 322 322
296 296 297 297 297 298 301 302 302 300 302 300 299 298 302 301 304 312 315 311 312 315 317 316 312 314 315 314 316 318 318 317 317 317 319 319 318 317 317 317 316 319 320 321 322
296 296 297 298 298 299 301 301 301 301 301 304 304 302 301 300 301 303 306 315 315 312 318 320 317 315 313 313 313 316 317 318 316 317 317 316 316 314 314 316 317 317 318 319 320
295 296 297 298 298 299 300 301 300 301 303 304 303 304 304 305 304 302 302 307 316 315 317 320 317 315 314 312 312 312 315 318 318 314 314 313 313 313 314 316 318 318 319 319 321
295 297 297 298 299 299 300 300 302 303 298 299 303 304 305 305 305 304 301 306 313 316 317 320 319 318 316 314 312 312 311 311 312 314 313 313 313 313 313 314 315 317 318 320 321
294 296 297 298 298 299 299 300 301 301 290 302 302 303 305 305 306 306 304 302 306 319 317 318 320 321 321 318 314 315 314 312 312 312 312 314 315 315 315 315 314 315 317 319 320
294 296 297 298 298 299 300 301 301 293 290 304 302 303 303 303 303 303 307 305 306 307 311 315 315 318 320 319 319 318 317 316 314 313 315 315 316 316 315 316 317 315 317 319 320
295 295 297 297 298 299 299 301 294 292 297 301 301 303 302 302 302 301 304 305 302 308 311 312 312 312 316 317 318 319 320 322 321 322 319 315 314 316 314 315 315 315 317 319 320
295 295 297 298 298 299 299 296 292 294 300 300 300 303 302 301 301 301 304 305 304 305 311 313 312 313 314 319 320 319 320 320 322 319 318 317 318 316 315 315 316 316 317 318 318
295 295 298 299 298 299 298 290 293 296 300 300 300 301 301 300 300 300 301 303 303 301 309 313 313 312 314 318 320 322 323 320 320 318 320 316 315 316 316 315 315 315 316 316 317
295 296 299 299 299 298 293 295 294 299 300 300 300 300 299 300 300 301 301 302 303 302 302 304 307 308 312 314 317 320 320 323 323 325 324 319 317 316 315 315 315 315 315 316 317
295 297 298 300 299 298 289 288 298 299 299 300 299 299 300 300 301 300 302 302 302 301 302 302 302 305 305 314 314 316 319 319 321 321 321 320 320 317 317 315 314 314 316 316 317
296 289 297 298 296 291 288 297 299 299 299 299 299 299 299 299 299 300 301 301 303 302 301 302 299 303 302 303 302 309 311 309 319 319 320 322 320 315 316 316 315 314 316 317 318
297 297 298 298 287 289 292 295 298 298 299 299 299 299 298 298 296 299 300 301 301 302 301 302 295 295 300 305 303 305 306 305 307 309 312 320 319 315 313 313 314 314 315 317 318
295 287 296 297 297 297 296 292 293 298 299 300 299 299 299 298 298 296 299 300 300 301 302 301 300 298 300 300 301 303 302 304 305 305 308 306 309 310 310 309 307 307 310 314 317
295 289 294 287 290 294 297 297 298 298 298 298 298 299 300 299 295 298 299 300 300 301 302 300 301 302 302 301 302 302 302 302 304 305 307 305 306 304 304 304 305 306 308 313 316
295 293 296 296 296 295 295 291 298 298 299 298 299 299 300 301 300 301 301 300 300 300 301 301 300 303 303 303 303 303 302 302 303 304 305 304 305 304 304 305 305 307 308 306 306
296 296 296 295 295 294 293 296 297 298 298 299 299 298 299 299 300 300 300 300 300 300 300 298 300 298 300 300 303 303 304 303 303 303 303 305 303 302 302 303 305 305 305 305 306
Wind_Speed
15 15 15 16 17 22 30 27 25 21 22 25 25 24 21 23 26 27 29 30 22 18 20 17 15 11 10 7 8 6 2 4 5 6 6 6 6 10 22 12 10 9 11 18 34
14 17 18 18 18 18 19 23 29 28 24 21 21 23 25 23 26 34 30 29 26 21 23 20 18 13 6 3 6 6 5 10 7 5 4 10 11 18 14 21 10 5 7 27 38
16 16 17 18 18 18 19 20 19 22 27 25 22 20 20 19 25 23 10 10 11 24 27 24 19 10 4 4 6 5 8 6 7 15 13 8 15 13 6 7 12 9 20 38 40
20 20 19 19 19 19 18 19 19 19 18 25 23 23 20 13 8 3 8 8 6 18 26 26 19 6 5 5 8 6 9 7 5 17 8 5 18 7 13 22 22 16 25 41 40
20 21 21 20 20 20 20 18 19 19 19 19 20 23 22 17 25 9 9 2 14 8 16 23 16 10 5 5 7 8 2 13 18 22 21 17 15 14 20 28 23 10 24 37 39
21 21 23 23 21 20 20 20 19 17 17 17 17 19 19 22 30 33 30 34 23 13 4 14 9 15 8 7 11 6 8 14 16 24 17 7 11 10 28 19 18 15 24 34 39
19 21 21 21 22 22 19 19 19 17 16 15 16 17 22 44 14 17 27 35 29 21 16 12 10 13 3 5 19 19 11 10 16 8 6 1 13 10 37 19 19 18 20 22 30
19 19 19 20 21 21 18 17 18 18 16 15 15 16 18 11 12 42 20 21 21 23 20 17 12 14 16 12 8 4 5 10 10 11 8 7 22 9 15 14 18 17 16 18 21
20 19 18 18 19 16 16 16 15 17 16 15 14 13 16 12 20 32 35 39 22 20 20 19 12 12 7 4 3 6 8 12 10 4 5 11 20 17 22 21 23 25 25 24 22
19 18 16 19 23 17 15 17 17 17 17 11 11 6 18 11 9 16 19 32 29 19 20 16 10 5 3 7 14 10 11 6 5 3 11 9 20 9 9 11 18 25 28 29 30
19 18 18 21 25 18 16 14 7 7 10 12 9 11 5 8 4 5 6 14 19 9 8 9 5 16 28 17 10 3 4 7 3 9 6 8 16 12 11 14 17 28 32 32 33
20 18 18 21 30 12 11 8 6 3 9 16 29 33 37 33 17 17 3 10 11 15 10 3 20 26 5 10 8 11 6 15 3 4 2 5 15 8 6 14 22 26 32 36 35
19 18 20 22 19 9 9 9 7 11 5 11 24 18 25 18 17 31 11 9 6 11 21 22 28 10 13 10 12 16 17 18 10 6 11 4 15 12 11 17 28 27 29 29 27
17 18 20 25 6 6 3 8 5 1 3 6 3 5 6 10 7 27 23 8 9 16 15 15 21 8 19 17 15 18 12 11 11 1 11 5 14 17 18 15 10 27 30 34 29
16 16 18 19 13 16 12 10 5 3 4 9 8 7 8 8 14 4 23 16 14 11 13 21 15 23 20 20 12 12 5 6 8 12 10 12 7 23 11 16 22 20 24 29 28
14 13 15 13 19 15 15 7 5 5 2 6 9 13 16 10 11 16 8 14 6 9 9 21 6 11 24 20 9 5 4 5 5 7 9 25 17 25 15 25 17 10 23 28 28
14 13 12 11 11 14 13 6 4 4 5 7 10 6 16 11 12 15 6 3 1 3 11 19 17 11 8 15 14 18 11 8 7 8 15 17 10 23 6 17 17 12 22 26 25
12 12 8 8 7 6 12 3 7 4 4 6 9 11 6 12 8 15 10 6 14 8 1 7 14 19 15 20 12 16 19 11 16 13 20 8 9 21 22 27 42 30 26 27 32
12 10 7 8 6 6 4 5 5 4 5 8 8 4 3 7 3 8 12 7 7 13 3 4 6 7 19 19 17 12 16 26 17 17 7 4 8 29 27 21 18 21 27 30 33
12 7 13 8 5 4 4 1 3 4 6 5 5 6 7 8 4 3 5 3 4 7 5 8 6 5 6 5 20 24 5 7 8 10 22 18 11 11 11 18 21 21 22 25 31
10 3 10 6 4 3 3 4 4 9 12 5 3 3 3 5 5 1 2 3 7 2 4 1 2 8 6 3 4 5 7 8 6 4 6 4 6 15 25 15 9 11 22 25 30
6 2 7 6 4 2 1 2 7 7 8 3 1 3 2 6 4 3 2 1 8 2 2 4 2 4 6 15 8 5 7 6 6 7 4 2 8 5 17 10 7 7 16 20 23
4 4 5 5 2 3 5 4 3 3 4 4 3 4 1 2 4 3 5 7 5 5 5 3 1 3 9 2 6 5 2 6 9 2 4 5 10 2 7 9 14 14 21 22 23
1 2 3 2 1 0 2 4 4 5 5 4 3 4 3 2 4 5 6 4 8 7 13 3 3 5 5 7 3 4 5 1 2 2 5 4 14 21 15 13 14 23 25 30 29
2 2 1 2 4 2 1 2 4 3 3 5 2 1 4 2 3 3 2 6 5 9 1 6 5 7 12 14 13 13 14 13 11 9 5 5 13 30 20 18 16 27 27 26 28
3 3 2 4 6 2 2 3 4 4 3 4 4 8 3 4 6 9 5 3 5 5 1 3 4 3 5 9 14 17 15 13 14 13 13 16 21 27 29 29 20 16 12 21 26
6 7 2 5 2 2 4 5 5 3 9 12 6 8 7 12 18 20 21 14 10 8 5 5 3 1 8 9 7 8 17 14 12 15 16 15 19 22 19 15 16 20 18 19 31
Wind_Direction
307 314 315 314 305 284 267 268 267 270 271 275 281 284 286 280 277 275 267 260 263 253 259 257 255 264 270 251 233 187 89 216 231 182 245 299 358 311 320 319 326 261 202 185 171
309 305 307 306 308 309 304 283 271 266 266 269 271 278 282 286 287 279 270 270 266 256 254 249 257 267 284 250 209 170 170 217 214 202 261 296 307 311 329 332 357 330 218 179 172
321 318 310 304 301 302 305 311 287 268 263 264 265 270 277 287 303 289 255 229 235 240 234 241 249 264 257 237 218 203 226 212 238 250 282 283 297 311 300 301 320 288 178 175 175
323 320 313 306 296 292 298 302 307 290 273 262 261 267 269 275 254 162 156 105 35 227 218 220 229 213 216 217 221 246 228 221 255 269 280 259 299 298 264 272 296 291 191 179 183
322 320 316 312 302 291 286 293 301 299 285 271 262 258 261 247 239 186 189 122 6 34 215 206 210 197 202 227 248 231 257 269 270 277 278 283 267 266 275 283 294 252 191 189 192
322 319 312 308 308 298 284 281 290 296 292 282 266 257 251 248 254 246 258 260 271 277 230 211 221 225 248 234 234 259 268 273 271 267 265 249 267 267 269 278 288 221 199 202 202
330 326 317 308 305 303 287 277 278 287 286 281 274 266 254 242 243 247 239 246 254 257 258 233 236 236 218 279 265 269 277 297 262 250 247 232 275 218 263 274 267 241 224 211 217
332 330 324 316 310 303 290 277 274 277 280 278 277 274 258 256 251 241 236 246 242 246 250 245 247 262 252 275 306 256 185 243 258 221 215 150 260 251 252 251 260 260 246 228 218
333 332 330 323 319 307 293 274 269 272 275 277 281 265 275 268 243 253 242 242 238 244 242 253 267 233 222 166 291 221 241 229 264 215 218 182 258 265 247 245 255 265 266 262 251
329 330 324 325 321 305 297 284 283 279 269 274 259 282 257 269 281 267 260 240 242 249 251 243 221 192 187 184 213 226 231 248 205 237 199 232 256 261 259 250 260 266 269 272 274
331 326 316 325 328 294 287 305 273 249 240 217 214 223 126 4 280 187 329 206 208 212 200 193 176 214 216 217 241 353 254 247 256 253 289 250 260 261 271 265 249 259 265 270 276
336 328 318 312 323 293 275 273 257 346 298 263 261 261 269 284 293 281 250 165 180 204 166 225 224 223 160 213 225 260 289 267 282 260 255 286 281 291 230 259 260 258 266 269 272
337 328 321 323 326 299 269 273 255 293 248 270 256 259 259 250 236 259 246 224 196 189 194 199 226 183 196 198 199 224 233 248 247 347 295 323 290 273 270 261 272 271 266 264 259
337 330 330 340 329 293 204 342 283 358 14 287 237 318 260 222 262 257 230 229 206 208 198 221 236 225 210 211 203 237 219 254 267 248 256 141 276 277 261 257 244 254 254 258 260
338 338 334 340 339 328 333 28 282 145 41 344 349 334 276 160 332 265 235 205 229 208 174 218 191 213 232 231 193 247 194 215 202 219 248 243 265 258 248 254 246 244 251 254 253
339 340 336 339 343 18 20 46 99 46 285 358 335 41 27 355 5 332 360 211 234 243 273 243 241 206 220 237 220 228 227 244 221 228 233 236 206 269 228 234 254 248 240 245 249
337 340 342 342 351 13 360 355 38 83 292 7 358 78 49 8 8 17 334 40 312 193 227 252 247 260 263 237 231 231 220 240 231 219 233 237 207 243 230 235 237 236 248 253 253
335 341 2 351 341 350 339 38 57 259 281 12 342 67 71 19 17 18 12 38 26 356 75 260 240 220 219 230 218 214 209 216 221 220 242 203 202 234 247 245 266 260 261 264 263
336 350 25 346 351 352 314 50 196 230 340 340 331 19 26 41 43 28 12 30 36 27 342 313 248 331 216 216 202 220 216 221 242 266 276 210 213 251 252 247 248 253 257 260 270
338 358 13 22 19 348 62 215 231 249 348 1 40 21 0 360 17 36 44 323 5 25 31 7 289 331 320 292 219 216 197 220 218 221 230 234 199 228 242 235 244 248 252 255 262
336 2 12 22 18 32 119 226 279 320 20 359 354 302 329 3 325 311 200 135 199 53 91 333 3 314 334 250 275 225 227 225 270 212 225 191 216 227 256 255 241 245 249 253 255
338 15 346 355 35 39 102 297 323 319 339 302 278 13 26 331 302 297 220 304 191 191 199 198 159 279 266 285 334 55 7 28 240 230 241 186 251 265 249 295 294 284 274 275 265
341 309 348 8 87 329 309 305 280 290 305 335 329 54 318 300 347 330 342 310 286 204 193 178 242 339 332 338 80 82 52 11 309 226 237 290 246 153 348 15 8 357 344 329 311
348 8 347 35 113 192 313 281 300 310 277 249 268 297 13 302 202 275 290 293 349 263 264 168 217 190 219 258 223 283 278 233 280 289 348 265 299 299 313 337 335 326 319 317 313
189 250 212 284 307 211 254 265 292 302 266 302 315 157 304 287 293 265 288 304 296 280 295 147 237 239 244 266 285 282 284 282 246 232 250 308 301 289 293 303 304 302 296 300 311
228 168 175 265 279 183 250 253 231 258 229 270 234 289 273 260 240 285 254 232 248 301 193 177 254 238 250 255 266 271 271 263 262 255 250 251 259 262 275 283 276 294 309 316 314
230 240 262 242 230 132 224 234 253 324 280 253 296 307 261 251 262 268 254 230 230 237 227 203 219 206 266 269 281 263 242 239 240 240 237 239 244 270 281 274 278 271 273 291 309